Location: Kershaw
(34.5481°N, 80.5823°W)
Time: 21:13:04
(UTC+00:00)

Vanguard 2 Rocket - Pass Details

Date: 06 October 2022
Orbit: 555 x 3321 km, 32.9° (Epoch: 28 November)

Event Time Altitude Azimuth Distance (km) Brightness Sun altitude
Rises 23:36:03 0° 206° (SSW) 7,139 11.8 -8.4°
Reaches altitude 10° 23:41:46 10° 197° (SSW) 6,243 11.4 -9.5°
Maximum altitude 23:57:50 31° 144° (SE) 4,508 10.1 -12.8°
Enters shadow 00:08:05 17° 100° (E) 4,853 9.9 -15.0°
